timestamp,surface_pressure_avg,surface_temp_avg,battery_voltage,lat,long
2020-11-12 00:09:01+00:00,257.288,8.3,12.73,47.84626,-54.09684
2020-11-12 00:19:01+00:00,254.4581,8.3,12.73,47.84626,-54.09684
2020-11-12 00:29:01+00:00,245.5681,8.3,12.73,47.84626,-54.09684
2020-11-12 00:39:01+00:00,239.9231,8.3,12.73,47.84626,-54.09684
2020-11-12 00:49:01+00:00,234.1548,8.3,12.73,47.84626,-54.09684
2020-11-12 00:59:01+00:00,222.9848,8.3,12.73,47.84626,-54.09684
2020-11-12 01:09:01+00:00,219.3248,8.3,12.73,47.84626,-54.09684
2020-11-12 01:19:01+00:00,219.5015,8.3,12.65,47.84626,-54.09684
2020-11-12 01:29:01+00:00,211.2048,8.3,12.65,47.84626,-54.09684
2020-11-12 01:39:01+00:00,201.3564,8.33,12.65,47.84626,-54.09684
2020-11-12 01:49:01+00:00,202.4864,8.35,12.65,47.84626,-54.09684
2020-11-12 01:59:01+00:00,205.9498,8.38,12.65,47.84626,-54.09684
2020-11-12 02:09:01+00:00,201.3698,8.4,12.65,47.84626,-54.09684
2020-11-12 02:19:01+00:00,196.5481,8.4,12.65,47.84626,-54.09684
2020-11-12 02:29:01+00:00,196.7748,8.4,12.65,47.84626,-54.09684
2020-11-12 02:39:01+00:00,194.3015,8.4,12.65,47.84626,-54.09684
2020-11-12 02:49:01+00:00,193.7897,8.4,12.65,47.84626,-54.09684
2020-11-12 02:59:01+00:00,195.2698,8.39,12.65,47.84626,-54.09684
2020-11-12 03:09:01+00:00,193.6115,8.39,12.65,47.84626,-54.09684
2020-11-12 03:19:01+00:00,188.4365,8.38,12.65,47.84626,-54.09684
2020-11-12 03:29:01+00:00,188.6348,8.3,12.65,47.84626,-54.09684
2020-11-12 03:39:01+00:00,197.2598,8.3,12.65,47.84626,-54.09684
2020-11-12 03:49:01+00:00,201.3281,8.3,12.65,47.84626,-54.09684
2020-11-12 03:59:01+00:00,198.4281,8.3,12.65,47.84626,-54.09684
2020-11-12 04:09:01+00:00,203.9348,8.2,12.65,47.84626,-54.09684
2020-11-12 04:19:01+00:00,214.3098,8.2,12.65,47.84626,-54.09684
2020-11-12 04:29:01+00:00,219.6964,8.2,12.65,47.84626,-54.09684
2020-11-12 04:39:01+00:00,217.3715,8.2,12.65,47.84626,-54.09684
2020-11-12 04:49:01+00:00,222.2214,8.2,12.65,47.84626,-54.09684
2020-11-12 04:59:01+00:00,231.8864,8.2,12.65,47.84626,-54.09684
2020-11-12 05:09:01+00:00,235.5714,8.2,12.65,47.84626,-54.09684
2020-11-12 05:19:01+00:00,237.7664,8.2,12.65,47.84626,-54.09684
2020-11-12 05:29:01+00:00,247.1431,8.2,12.65,47.84626,-54.09684
2020-11-12 05:39:01+00:00,253.3947,8.2,12.65,47.84626,-54.09684
2020-11-12 05:49:01+00:00,253.7664,8.2,12.65,47.84626,-54.09684
2020-11-12 05:59:01+00:00,258.5447,8.2,12.65,47.84626,-54.09684
2020-11-12 06:09:01+00:00,267.9564,8.2,12.65,47.84626,-54.09684
2020-11-12 06:19:01+00:00,275.1564,8.2,12.57,47.84626,-54.09684
2020-11-12 06:29:01+00:00,280.6531,8.2,12.57,47.84626,-54.09684
2020-11-12 06:39:01+00:00,288.2097,8.23,12.57,47.84626,-54.09684
2020-11-12 06:49:01+00:00,298.4931,8.26,12.57,47.84626,-54.09684
2020-11-12 06:59:01+00:00,302.933,8.28,12.57,47.84626,-54.09684
2020-11-12 07:09:01+00:00,305.5314,8.2,12.57,47.84626,-54.09684
2020-11-12 07:19:01+00:00,308.8763,8.2,12.57,47.84626,-54.09684
2020-11-12 07:29:01+00:00,317.9763,8.2,12.57,47.84626,-54.09684
2020-11-12 07:39:01+00:00,325.1563,8.2,12.57,47.84626,-54.09684
2020-11-12 07:49:01+00:00,333.1897,8.2,12.57,47.84626,-54.09684
2020-11-12 07:59:01+00:00,335.9646,8.2,12.57,47.84626,-54.09684
2020-11-12 08:09:01+00:00,335.3997,8.2,12.57,47.84626,-54.09684
2020-11-12 08:19:01+00:00,339.4147,8.2,12.57,47.84626,-54.09684
2020-11-12 08:29:01+00:00,347.3279,8.24,12.57,47.84626,-54.09684
2020-11-12 08:39:01+00:00,343.343,8.28,12.57,47.84626,-54.09684
2020-11-12 08:49:01+00:00,338.2579,8.27,12.57,47.84626,-54.09684
2020-11-12 08:59:01+00:00,341.2812,8.28,12.57,47.84626,-54.09684
2020-11-12 09:09:01+00:00,344.8096,8.29,12.57,47.84626,-54.09684
2020-11-12 09:19:01+00:00,337.61300000000006,8.3,12.57,47.84626,-54.09684
2020-11-12 09:29:01+00:00,332.4813,8.3,12.57,47.84626,-54.09684
2020-11-12 09:39:01+00:00,335.3312,8.3,12.57,47.84626,-54.09684
2020-11-12 09:49:01+00:00,334.6330000000001,8.3,12.57,47.84626,-54.09684
2020-11-12 09:59:01+00:00,325.4647,8.3,12.57,47.84626,-54.09684
2020-11-12 10:09:01+00:00,326.0929,8.3,12.57,47.84626,-54.09684
2020-11-12 10:19:01+00:00,321.2896,8.3,12.57,47.84626,-54.09684
2020-11-12 10:29:01+00:00,308.783,8.3,12.57,47.84626,-54.09684
2020-11-12 10:39:01+00:00,302.4363,8.3,12.57,47.84626,-54.09684
2020-11-12 10:49:01+00:00,304.618,8.3,12.57,47.84626,-54.09684
2020-11-12 10:59:01+00:00,300.293,8.3,12.57,47.84626,-54.09684
2020-11-12 11:09:01+00:00,291.0613,8.3,12.57,47.84626,-54.09684
2020-11-12 11:19:01+00:00,282.3447,8.3,12.57,47.84626,-54.09684
2020-11-12 11:29:01+00:00,281.4597,8.3,12.57,47.84626,-54.09684
2020-11-12 11:39:01+00:00,273.8614,8.3,12.57,47.84626,-54.09684
2020-11-12 11:49:01+00:00,262.6031,8.3,12.57,47.84626,-54.09684
2020-11-12 11:59:01+00:00,252.6981,8.3,12.57,47.84626,-54.09684
2020-11-12 12:09:01+00:00,250.4681,8.3,12.57,47.84626,-54.09684
2020-11-12 12:19:01+00:00,243.3014,8.3,12.57,47.84626,-54.09684
2020-11-12 12:29:01+00:00,234.2664,8.3,12.57,47.84626,-54.09684
2020-11-12 12:39:01+00:00,234.4715,8.3,12.57,47.84626,-54.09684
2020-11-12 12:49:01+00:00,230.0364,8.3,12.57,47.84626,-54.09684
2020-11-12 12:59:01+00:00,217.6081,8.3,12.57,47.84626,-54.09684
2020-11-12 13:09:01+00:00,215.4781,8.3,12.57,47.84626,-54.09684
2020-11-12 13:19:01+00:00,219.9298,8.3,12.57,47.84626,-54.09684
2020-11-12 13:29:01+00:00,212.7748,8.29,12.57,47.84626,-54.09684
2020-11-12 13:39:01+00:00,203.9815,8.28,12.57,47.84626,-54.09684
2020-11-12 13:49:01+00:00,203.7381,8.27,12.57,47.84626,-54.09684
2020-11-12 13:59:01+00:00,205.9164,8.27,12.57,47.84626,-54.09684
2020-11-12 14:09:01+00:00,202.1081,8.27,12.57,47.84626,-54.09684
2020-11-12 14:19:01+00:00,198.3264,8.29,12.57,47.84626,-54.09684
2020-11-12 14:29:01+00:00,197.8681,8.29,12.57,47.84626,-54.09684
2020-11-12 14:39:01+00:00,195.8498,8.29,12.57,47.84626,-54.09684
2020-11-12 14:49:01+00:00,194.2298,8.29,12.57,47.84626,-54.09684
2020-11-12 14:59:01+00:00,189.1748,8.26,12.57,47.84626,-54.09684
2020-11-12 15:09:01+00:00,187.2165,8.25,12.57,47.84626,-54.09684
2020-11-12 15:19:01+00:00,187.9348,8.27,12.65,47.84626,-54.09684
2020-11-12 15:29:01+00:00,182.0382,8.29,12.65,47.84626,-54.09684
2020-11-12 15:39:01+00:00,181.0481,8.29,12.65,47.84626,-54.09684
2020-11-12 15:49:01+00:00,189.1098,8.3,12.65,47.84626,-54.09684
2020-11-12 15:59:01+00:00,192.7964,8.3,12.65,47.84626,-54.09684
2020-11-12 16:09:01+00:00,192.1698,8.3,12.65,47.84626,-54.09684
2020-11-12 16:19:01+00:00,192.9731,8.3,12.73,47.84626,-54.09684
2020-11-12 16:29:01+00:00,200.6748,8.3,12.73,47.84626,-54.09684
2020-11-12 16:39:01+00:00,207.5615,8.3,12.73,47.84626,-54.09684
2020-11-12 16:49:01+00:00,205.2081,8.3,12.73,47.84626,-54.09684
2020-11-12 16:59:01+00:00,206.6215,8.3,12.73,47.84626,-54.09684
2020-11-12 17:09:01+00:00,215.3414,8.3,12.73,47.84626,-54.09684
2020-11-12 17:19:01+00:00,222.0414,8.3,12.89,47.84626,-54.09684
2020-11-12 17:29:01+00:00,218.4848,8.3,12.89,47.84626,-54.09684
2020-11-12 17:39:01+00:00,225.2348,8.3,12.89,47.84626,-54.09684
2020-11-12 17:49:01+00:00,236.3797,8.3,12.89,47.84626,-54.09684
2020-11-12 17:59:01+00:00,237.5648,8.3,12.89,47.84626,-54.09684
2020-11-12 18:09:01+00:00,240.1631,8.31,12.89,47.84626,-54.09684
2020-11-12 18:19:01+00:00,248.6181,8.35,13.05,47.84626,-54.09684
2020-11-12 18:29:01+00:00,255.753,8.36,13.05,47.84626,-54.09684
2020-11-12 18:39:01+00:00,262.8781,8.38,13.05,47.84626,-54.09684
2020-11-12 18:49:01+00:00,268.2497,8.39,13.05,47.84626,-54.09684
2020-11-12 18:59:01+00:00,278.2647,8.39,13.05,47.84626,-54.09684
2020-11-12 19:09:01+00:00,290.9247,8.39,13.05,47.84626,-54.09684
2020-11-12 19:19:01+00:00,302.9447,8.39,13.05,47.84626,-54.09684
2020-11-12 19:29:01+00:00,307.8381,8.4,13.05,47.84626,-54.09684
2020-11-12 19:39:01+00:00,316.298,8.4,13.05,47.84626,-54.09684
2020-11-12 19:49:01+00:00,326.5863,8.4,13.05,47.84626,-54.09684
2020-11-12 19:59:01+00:00,338.3079,8.4,13.05,47.84626,-54.09684
2020-11-12 20:09:01+00:00,344.7163,8.4,13.05,47.84626,-54.09684
2020-11-12 20:19:01+00:00,351.6462,8.4,12.81,47.84626,-54.09684
2020-11-12 20:29:01+00:00,359.2929,8.4,12.81,47.84626,-54.09684
2020-11-12 20:39:01+00:00,363.5762,8.4,12.81,47.84626,-54.09684
2020-11-12 20:49:01+00:00,361.3729,8.4,12.81,47.84626,-54.09684
2020-11-12 20:59:01+00:00,366.4662,8.39,12.81,47.84626,-54.09684
2020-11-12 21:09:01+00:00,375.3646,8.4,12.81,47.84626,-54.09684
2020-11-12 21:19:01+00:00,370.36300000000006,8.4,12.73,47.84626,-54.09684
2020-11-12 21:29:01+00:00,364.2229,8.38,12.73,47.84626,-54.09684
2020-11-12 21:39:01+00:00,374.1047,8.38,12.73,47.84626,-54.09684
2020-11-12 21:49:01+00:00,379.1595,8.39,12.73,47.84626,-54.09684
2020-11-12 21:59:01+00:00,366.5195,8.36,12.73,47.84626,-54.09684
2020-11-12 22:09:01+00:00,357.9796,8.37,12.73,47.84626,-54.09684
2020-11-12 22:19:01+00:00,372.3429,8.4,12.65,47.84626,-54.09684
2020-11-12 22:29:01+00:00,369.63300000000004,8.39,12.65,47.84626,-54.09684
2020-11-12 22:39:01+00:00,352.3663,8.26,12.65,47.84626,-54.09684
2020-11-12 22:49:01+00:00,351.2362,8.3,12.65,47.84626,-54.09684
2020-11-12 22:59:01+00:00,358.3996,8.3,12.65,47.84626,-54.09684
2020-11-12 23:09:01+00:00,347.0945,8.22,12.65,47.84626,-54.09684
2020-11-12 23:19:01+00:00,338.6980000000001,8.3,12.65,47.84626,-54.09684
2020-11-12 23:29:01+00:00,346.9496,8.36,12.65,47.84626,-54.09684
2020-11-12 23:39:01+00:00,340.1463,8.3,12.65,47.84626,-54.09684
2020-11-12 23:49:01+00:00,317.1846,8.3,12.65,47.84626,-54.09684
2020-11-12 23:59:01+00:00,312.6663,8.37,12.65,47.84626,-54.09684
